Wind_Speed
40 43 50 51 50 47 43 42 40 40 37 30 26 22 16 7 8 7 8 6 6 4 8 7 11 12 9 7 7 6 6 4 3 2 4 7 10 13 16 19 20 20 18 12
41 45 50 51 51 48 44 42 41 40 36 31 27 21 10 9 9 8 9 5 5 5 7 10 12 11 11 10 10 7 4 2 1 0 2 5 11 16 20 23 22 22 19 19
42 47 50 51 51 49 47 44 42 40 34 32 27 19 15 12 9 10 11 8 9 7 10 11 14 13 13 12 10 6 3 4 5 5 8 11 16 20 24 26 27 24 21 22
42 46 50 50 50 50 47 44 41 38 35 31 25 21 18 15 13 11 11 10 12 11 11 12 14 15 14 13 10 8 7 8 9 9 12 16 19 21 23 25 29 31 24 26
41 45 47 51 50 50 47 46 42 39 36 32 29 25 22 18 18 14 14 13 15 14 15 14 15 15 14 14 12 12 12 13 13 13 15 19 21 25 27 28 29 31 29 32
39 43 45 49 51 50 48 46 42 40 36 33 32 26 23 24 19 18 16 17 16 14 12 13 15 18 19 18 16 17 16 16 16 17 20 23 27 29 31 32 33 36 35 37
35 40 43 46 49 51 48 44 43 40 38 36 32 28 29 27 21 23 18 16 16 16 19 21 21 22 21 20 19 19 19 20 20 22 25 28 31 33 34 36 36 38 39 38
33 35 39 42 45 46 46 47 45 41 39 38 35 33 33 30 24 23 18 16 21 23 23 24 24 25 23 22 21 21 22 24 26 28 30 32 36 38 36 39 39 38 40 41
33 32 32 35 40 40 43 46 43 41 40 38 36 37 36 30 26 25 22 22 24 24 25 27 28 27 25 26 24 25 27 29 30 33 35 38 42 44 43 43 40 41 39 40
33 31 31 31 32 36 40 42 41 40 39 38 38 38 34 31 32 30 28 27 27 27 28 30 32 32 32 31 29 30 32 33 35 37 39 40 42 46 44 43 46 46 43 45
33 31 31 30 30 30 33 37 39 40 40 40 40 39 35 36 35 32 31 31 30 32 33 33 34 36 37 36 35 34 36 38 38 41 43 45 47 48 47 46 49 48 47 48
35 33 31 30 30 31 32 33 35 37 38 39 41 40 39 39 38 34 35 37 33 37 36 35 38 39 39 38 39 39 41 41 42 44 46 48 52 51 51 52 53 50 51 53
37 34 32 31 31 31 31 33 34 34 35 37 40 39 38 38 39 37 37 38 37 37 37 40 41 41 40 40 40 41 43 45 47 50 50 52 57 55 53 54 53 52 53 55
39 37 35 33 31 31 32 32 33 33 34 36 36 37 37 38 40 39 37 38 39 38 39 41 42 42 43 42 43 45 40 45 46 50 50 53 54 53 56 55 53 55 58 58
39 39 37 36 34 33 32 33 34 34 34 35 34 35 35 35 36 37 38 37 38 39 39 40 41 43 43 45 46 45 40 46 48 49 50 53 51 54 54 53 56 58 58 57
39 39 39 38 37 36 34 34 34 33 33 35 34 34 33 35 36 35 36 36 37 37 38 40 42 42 43 47 47 43 41 42 44 52 53 50 53 55 52 56 58 58 56 56
39 39 39 39 37 36 35 34 31 31 32 34 36 36 34 35 36 34 32 33 34 35 37 41 41 41 43 48 49 39 42 45 49 49 48 51 52 52 54 58 57 55 57 61
37 36 38 37 37 36 35 33 32 33 35 34 37 38 35 33 33 29 32 33 34 33 32 39 39 43 46 50 43 45 47 48 48 48 49 53 53 55 59 60 57 58 62 65
35 35 34 38 39 37 35 36 35 34 36 35 36 36 36 33 34 35 34 34 34 37 42 43 45 47 49 46 47 48 48 48 48 49 51 51 53 59 61 59 61 64 67 70
34 36 35 34 37 38 37 38 37 37 38 39 40 39 40 40 40 40 42 41 43 46 46 47 50 52 50 45 46 49 50 50 51 53 51 52 56 58 59 62 65 68 70 72
35 35 31 29 29 34 37 39 36 36 35 35 36 34 37 40 40 40 42 44 47 49 49 52 53 51 42 42 44 46 50 52 51 48 52 56 58 59 60 63 67 70 71 69
36 35 33 33 33 32 37 36 36 36 35 37 36 34 35 39 41 43 44 45 46 46 45 49 50 48 45 46 48 48 47 45 47 53 56 58 60 60 63 66 68 69 65 63
41 39 38 39 38 38 39 38 37 38 38 38 37 36 35 35 37 39 40 42 45 47 50 51 50 47 48 51 53 52 52 53 54 56 61 63 63 65 66 68 66 62 61 64
45 48 47 46 46 46 43 43 43 42 40 40 41 42 43 43 44 44 46 49 53 56 55 52 50 51 54 56 55 54 54 55 59 63 65 64 64 65 65 61 59 61 63 65
46 45 47 50 51 50 49 47 45 47 49 49 50 51 48 47 47 49 53 54 54 53 54 54 55 57 59 58 57 58 59 61 60 60 61 61 60 58 57 58 61 64 67 70
43 44 44 45 45 48 49 49 47 48 51 53 52 51 53 55 53 50 50 49 50 54 57 57 58 59 57 56 55 55 55 55 57 57 56 55 56 57 57 61 65 68 69 67
43 41 41 43 45 46 46 51 55 52 48 46 49 53 53 51 51 49 49 49 51 54 54 50 46 45 47 49 50 51 51 50 50 51 52 55 58 61 64 64 64 63 63 64
Wind_Direction
185 187 187 182 182 181 178 181 182 184 188 191 191 201 204 191 246 279 296 285 259 225 216 187 159 154 162 164 156 155 146 130 119 84 39 10 5 0 357 351 339 325 314 289
185 186 187 186 184 186 186 186 190 193 195 196 199 207 204 228 257 282 303 264 246 211 204 177 170 173 170 173 169 164 170 159 81 243 67 10 355 353 354 359 354 330 321 300
185 186 188 189 188 188 191 192 194 197 198 204 209 212 222 238 265 282 297 245 236 217 204 191 189 186 186 186 184 189 210 290 322 339 347 348 341 338 337 344 351 352 324 311
185 187 188 191 191 192 194 197 198 199 206 211 216 223 232 248 267 279 290 248 236 231 223 213 200 200 203 203 210 223 248 274 297 313 323 327 332 330 329 333 339 342 332 316
185 188 189 192 194 195 198 201 196 203 205 211 223 230 238 248 260 269 282 256 237 237 231 229 210 219 221 223 233 243 255 271 291 307 314 320 326 329 328 329 331 335 327 321
185 186 191 193 197 199 200 207 200 207 211 217 226 232 243 248 254 262 261 251 246 241 252 236 221 223 226 233 240 251 263 273 284 296 307 316 320 325 328 327 326 328 328 326
183 185 191 197 199 202 204 208 211 211 214 221 227 231 237 245 251 256 266 264 249 240 236 231 226 229 233 239 248 260 266 274 284 297 307 313 315 320 323 323 321 323 325 324
184 185 190 197 202 204 207 211 214 216 218 223 227 231 237 244 250 258 271 252 239 238 239 236 233 236 242 250 256 266 272 280 289 298 303 309 312 316 319 319 319 322 322 321
189 188 188 196 202 205 211 216 216 219 221 224 226 230 238 242 243 248 248 245 244 244 245 240 240 242 248 253 260 267 275 282 290 296 302 309 311 313 316 317 317 316 314 316
193 193 193 197 201 206 212 217 219 223 226 229 231 235 240 242 244 248 250 247 242 242 246 245 244 246 250 254 261 270 278 281 288 294 300 306 308 309 312 314 313 313 313 315
195 197 198 201 205 208 213 219 220 223 226 228 232 237 237 242 247 248 247 248 246 243 245 246 247 250 252 258 263 271 275 281 288 294 300 303 305 308 311 310 308 311 313 314
199 200 201 205 209 213 215 219 222 222 225 229 232 235 237 241 242 244 246 247 245 247 248 250 250 254 256 261 267 272 277 282 290 295 298 302 305 306 310 308 309 309 313 315
204 205 206 208 211 216 220 222 224 224 226 231 234 238 238 239 244 242 245 250 251 252 252 251 253 256 259 263 267 273 279 286 292 295 300 303 304 307 305 304 308 311 313 314
208 210 211 212 215 218 222 226 229 230 232 235 236 240 244 247 250 253 250 251 253 252 254 256 257 260 261 264 270 274 285 290 294 296 298 299 303 302 302 306 306 310 313 312
212 214 216 218 220 223 225 229 233 235 236 240 243 245 248 250 252 253 256 257 257 259 259 259 261 263 268 267 271 280 292 291 292 295 296 298 297 295 299 302 306 311 311 311
215 218 220 222 226 227 228 232 235 239 244 245 246 248 251 253 255 258 260 263 265 266 266 266 266 271 273 272 274 288 292 292 293 295 298 296 294 298 302 303 307 308 309 309
218 219 222 226 228 231 235 238 241 246 248 250 250 250 250 254 259 262 267 269 271 270 268 269 273 276 278 280 284 293 292 291 292 293 295 292 293 294 298 303 305 307 306 308
218 221 223 226 230 232 236 240 243 247 251 254 254 255 255 256 260 256 258 261 263 263 264 271 276 279 282 283 292 289 290 290 292 293 291 292 295 297 300 302 306 306 308 309
221 228 234 234 232 235 239 244 247 249 251 255 259 261 262 259 259 261 263 267 264 265 273 277 279 280 284 290 291 291 291 292 291 289 289 294 297 300 301 301 302 304 307 309
224 228 228 230 236 241 244 246 249 250 253 256 258 262 265 267 267 269 272 273 271 272 273 276 276 279 285 290 289 290 291 289 288 291 289 293 299 303 300 299 302 304 307 309
221 224 227 231 240 246 249 251 251 252 254 257 260 265 270 272 275 277 276 277 278 277 277 278 279 281 281 286 294 293 289 285 287 284 286 294 298 300 301 302 302 304 305 306
226 231 233 240 246 247 249 252 253 255 257 256 263 273 275 276 279 281 283 279 275 276 281 285 283 282 281 289 295 294 293 290 287 288 293 297 299 299 297 298 301 303 304 305
233 238 241 242 246 251 253 251 255 257 263 265 266 270 273 271 275 278 279 279 279 280 283 288 290 286 285 289 291 290 290 290 292 294 294 293 295 295 297 300 301 302 304 308
244 244 243 244 244 244 247 256 257 258 260 261 263 268 270 270 275 275 275 281 283 284 285 285 285 286 288 287 288 291 292 293 292 291 289 288 292 297 299 300 302 304 308 309
244 242 243 244 246 248 250 251 254 256 258 262 266 267 268 271 277 274 275 282 282 284 285 288 290 291 290 290 290 290 289 285 282 284 288 293 295 296 298 303 305 306 308 308
245 243 245 246 246 246 245 246 250 254 254 257 258 262 268 272 275 275 276 277 280 283 286 288 287 283 280 276 275 277 280 282 285 289 291 292 293 297 302 304 305 306 306 305
241 245 246 245 246 248 250 249 249 253 256 258 259 259 260 267 270 275 280 278 277 275 273 271 269 270 274 281 285 286 287 288 289 291 295 299 301 304 305 304 302 304 307 310
Height
5687 5695 5703 5711 5720 5727 5735 5741 5748 5753 5757 5763 5768 5771 5774 5778 5779 5780 5781 5782 5782 5783 5784 5785 5788 5791 5793 5795 5797 5798 5800 5801 5802 5803 5802 5802 5801 5800 5799 5796 5793 5790 5788 5788
5684 5692 5700 5709 5718 5726 5732 5739 5745 5751 5756 5761 5765 5768 5773 5776 5777 5779 5780 5781 5782 5782 5783 5786 5788 5790 5793 5795 5796 5798 5799 5800 5801 5801 5802 5801 5798 5796 5794 5792 5789 5783 5782 5781
5681 5689 5698 5707 5715 5723 5729 5736 5742 5748 5754 5758 5763 5767 5771 5773 5775 5777 5778 5780 5780 5781 5782 5784 5787 5789 5791 5793 5795 5796 5797 5797 5797 5798 5797 5796 5794 5792 5788 5786 5784 5783 5776 5773
5678 5686 5695 5704 5712 5719 5726 5733 5740 5747 5751 5756 5761 5765 5768 5771 5773 5775 5776 5777 5779 5779 5781 5783 5785 5787 5789 5791 5793 5794 5795 5795 5795 5794 5794 5792 5790 5788 5785 5781 5777 5773 5772 5766
5675 5684 5692 5700 5708 5716 5724 5729 5736 5742 5747 5753 5758 5761 5765 5768 5770 5773 5774 5775 5776 5777 5778 5781 5784 5786 5787 5789 5790 5791 5791 5791 5791 5790 5789 5787 5785 5782 5779 5776 5772 5768 5763 5758
5673 5681 5689 5697 5704 5712 5719 5724 5733 5739 5745 5750 5753 5759 5762 5762 5766 5769 5769 5770 5772 5776 5778 5779 5782 5783 5784 5785 5787 5786 5787 5787 5787 5786 5784 5782 5779 5776 5773 5769 5764 5760 5756 5751
5672 5678 5686 5694 5701 5708 5716 5723 5729 5736 5740 5745 5750 5754 5755 5758 5762 5763 5765 5768 5770 5774 5773 5774 5777 5777 5779 5780 5782 5782 5782 5782 5782 5780 5778 5776 5772 5770 5766 5762 5757 5754 5749 5744
5671 5676 5683 5690 5697 5705 5712 5717 5724 5730 5735 5740 5744 5748 5749 5753 5758 5760 5762 5764 5765 5766 5769 5770 5771 5773 5774 5775 5776 5776 5776 5775 5774 5773 5770 5769 5764 5762 5760 5754 5751 5746 5739 5734
5669 5675 5680 5687 5694 5701 5707 5712 5720 5725 5730 5734 5738 5741 5743 5749 5752 5754 5756 5758 5759 5763 5764 5765 5766 5767 5769 5769 5770 5770 5769 5768 5768 5765 5762 5760 5756 5751 5750 5746 5743 5738 5734 5729
5666 5673 5678 5684 5690 5696 5701 5706 5713 5719 5724 5728 5732 5735 5740 5744 5744 5747 5749 5751 5753 5756 5758 5759 5760 5761 5761 5761 5763 5763 5761 5760 5759 5756 5754 5753 5748 5743 5740 5737 5734 5726 5722 5717
5664 5670 5675 5681 5687 5692 5697 5701 5707 5713 5717 5722 5724 5728 5734 5735 5739 5741 5743 5744 5746 5749 5750 5751 5753 5753 5753 5754 5755 5754 5753 5751 5750 5748 5745 5743 5738 5734 5732 5727 5720 5716 5711 5705
5661 5667 5672 5677 5683 5688 5693 5697 5702 5706 5711 5716 5717 5720 5724 5727 5730 5735 5735 5735 5739 5739 5742 5744 5744 5744 5745 5747 5746 5746 5744 5742 5741 5740 5736 5731 5725 5723 5720 5712 5707 5703 5698 5692
5657 5663 5668 5673 5679 5684 5689 5693 5696 5700 5704 5708 5711 5714 5718 5719 5720 5725 5727 5728 5730 5732 5734 5733 5734 5736 5737 5737 5738 5736 5735 5731 5730 5726 5723 5719 5714 5712 5707 5701 5696 5691 5687 5680
5653 5659 5665 5670 5674 5679 5684 5687 5691 5695 5698 5701 5705 5707 5710 5712 5713 5715 5719 5720 5721 5723 5724 5724 5726 5727 5727 5728 5727 5727 5729 5722 5720 5716 5712 5705 5703 5698 5692 5688 5684 5679 5673 5665
5648 5654 5660 5665 5669 5673 5677 5681 5685 5688 5692 5695 5699 5700 5703 5705 5707 5708 5709 5711 5712 5713 5715 5717 5718 5717 5717 5718 5717 5720 5718 5711 5707 5706 5702 5698 5694 5685 5682 5678 5671 5665 5658 5651
5644 5649 5655 5660 5664 5668 5672 5675 5679 5681 5685 5689 5691 5695 5697 5697 5699 5701 5701 5702 5704 5706 5706 5707 5707 5707 5705 5706 5708 5711 5705 5700 5695 5692 5690 5685 5677 5672 5667 5663 5658 5652 5645 5639
5639 5644 5649 5653 5657 5662 5665 5670 5674 5675 5678 5680 5683 5686 5689 5690 5692 5695 5696 5696 5696 5696 5696 5696 5697 5696 5694 5695 5698 5698 5691 5687 5683 5681 5676 5670 5666 5661 5656 5651 5645 5638 5631 5624
5633 5638 5643 5647 5651 5655 5658 5662 5666 5669 5670 5673 5674 5677 5682 5685 5686 5687 5687 5688 5688 5687 5686 5686 5687 5686 5683 5683 5687 5681 5679 5675 5670 5666 5661 5656 5652 5646 5642 5636 5631 5624 5617 5609
5627 5632 5636 5640 5644 5648 5652 5655 5659 5661 5664 5663 5666 5669 5671 5675 5676 5677 5678 5678 5677 5677 5677 5677 5675 5675 5673 5674 5670 5667 5664 5661 5657 5652 5646 5643 5639 5633 5627 5623 5617 5611 5603 5595
5620 5625 5629 5633 5637 5642 5644 5646 5649 5652 5653 5654 5657 5661 5662 5665 5666 5667 5667 5666 5666 5665 5667 5664 5663 5663 5665 5661 5656 5653 5650 5647 5643 5639 5635 5631 5625 5620 5614 5609 5602 5595 5589 5581
5614 5619 5623 5627 5630 5633 5635 5637 5640 5643 5645 5648 5650 5653 5654 5654 5655 5656 5655 5652 5651 5650 5652 5648 5648 5651 5653 5649 5645 5641 5635 5631 5629 5626 5622 5617 5612 5606 5600 5594 5587 5580 5573 5564
5607 5612 5615 5619 5621 5624 5626 5629 5634 5636 5638 5640 5641 5646 5646 5644 5644 5642 5640 5639 5639 5639 5638 5635 5635 5637 5637 5634 5630 5626 5623 5620 5617 5613 5608 5602 5597 5591 5584 5577 5571 5563 5555 5547
5599 5603 5606 5609 5611 5613 5615 5621 5624 5626 5629 5631 5633 5634 5635 5634 5634 5631 5630 5627 5626 5626 5625 5623 5623 5623 5622 5618 5615 5611 5608 5604 5601 5597 5592 5587 5581 5575 5569 5562 5554 5547 5540 5532
5588 5592 5595 5598 5600 5603 5607 5611 5614 5616 5617 5620 5620 5621 5621 5622 5621 5621 5618 5615 5614 5611 5611 5612 5611 5609 5605 5603 5601 5597 5593 5589 5585 5581 5576 5571 5566 5560 5552 5545 5538 5532 5526 5518
5576 5580 5583 5586 5589 5592 5595 5599 5603 5605 5606 5607 5607 5607 5608 5609 5607 5608 5605 5603 5600 5599 5597 5597 5596 5593 5590 5586 5585 5581 5577 5573 5570 5566 5561 5556 5550 5545 5539 5531 5523 5517 5511 5502
5566 5569 5573 5576 5579 5581 5584 5587 5589 5591 5592 5593 5594 5594 5594 5593 5593 5592 5591 5590 5588 5585 5583 5582 5579 5576 5574 5571 5569 5567 5565 5561 5556 5551 5546 5540 5536 5532 5526 5518 5508 5501 5493 5484
5555 5559 5561 5564 5566 5569 5572 5574 5576 5578 5579 5580 5582 5582 5582 5582 5580 5580 5578 5576 5574 5572 5570 5568 5567 5565 5562 5560 5556 5552 5549 5545 5541 5536 5531 5526 5521 5515 5509 5502 5493 5485 5476 5467